This is the latest recevied weather packets stored in our database for station/object N8ESC. If no packets are shown the sender has not sent any weather packets the latest 10 day(s).
| Time | Temp. | Humidity | Pressure | Rain* | Wind** | Luminosity | Snow |
|---|---|---|---|---|---|---|---|
| 1777374002 | 10.56° C | 85% | 997.4 hPa | 0 mm | - | 3 W/m² | - |
| 1777373699 | 10.56° C | 84% | 997.2 hPa | 0 mm | - | 3 W/m² | - |
| 1777373396 | 11.11° C | 84% | 997.1 hPa | 0 mm | - | 1 W/m² | - |
| 1777373091 | 11.11° C | 85% | 996.9 hPa | 0 mm | - | 2 W/m² | - |
| 1777372786 | 11.11° C | 85% | 996.8 hPa | 0 mm | - | 2 W/m² | - |
| 1777372481 | 11.67° C | 87% | 996.7 hPa | 0 mm | - | 1 W/m² | - |
| 1777372179 | 11.67° C | 88% | 996.5 hPa | 0 mm | - | 1 W/m² | - |
| 1777371875 | 11.67° C | 88% | 996.3 hPa | 0 mm | - | 0 W/m² | - |
| 1777371572 | 12.22° C | 87% | 996.2 hPa | 0 mm | - | 0 W/m² | - |
| 1777371268 | 12.78° C | 88% | 996 hPa | 0 mm | - | 0 W/m² | - |
| 1777370965 | 12.22° C | 95% | 995.8 hPa | 0 mm | - | 0 W/m² | - |
| 1777370660 | 12.22° C | 99% | 995.6 hPa | 0 mm | - | 0 W/m² | - |
| 1777370357 | 12.22° C | 99% | 995.6 hPa | 0 mm | - | 0 W/m² | - |
| 1777370052 | 11.67° C | 99% | 995.5 hPa | 0 mm | - | 0 W/m² | - |
| 1777369750 | 11.67° C | 99% | 995.5 hPa | 0 mm | - | 0 W/m² | - |
| 1777369449 | 11.67° C | 99% | 995.4 hPa | 0 mm | - | 0 W/m² | - |
| 1777369146 | 11.11° C | 99% | 995.4 hPa | 0 mm | - | 0 W/m² | - |
| 1777368844 | 11.11° C | 99% | 995.3 hPa | 0 mm | - | 0 W/m² | - |
| 1777368544 | 11.11° C | 99% | 995.2 hPa | 0 mm | - | 0 W/m² | - |
| 1777368241 | 11.11° C | 99% | 995.2 hPa | 0 mm | - | 0 W/m² | - |
| 1777367938 | 10.56° C | 99% | 995.2 hPa | 0 mm | - | 0 W/m² | - |
| 1777367635 | 10.56° C | 99% | 995.3 hPa | 0 mm | - | 0 W/m² | - |
| 1777367330 | 10.56° C | 99% | 995.2 hPa | 0 mm | - | 0 W/m² | - |
| 1777367030 | 10° C | 99% | 994.9 hPa | 0 mm | - | 0 W/m² | - |
| 1777366730 | 10° C | 99% | 994.9 hPa | 0 mm | - | 0 W/m² | - |
* Rain latest hour (hover to see other rain measurements)
** Current wind speed in m/s (hover to see current wind gust speed)